Location: Wien
(48.2082°N, 16.3738°E)
Time: 10:23:11
(UTC+02:00)

Transit 4A - Pass Details

Date: 23 February 2024
Orbit: 871 x 971 km, 66.8° (Epoch: 24 April)

Event Time Altitude Azimuth Distance (km) Brightness Sun altitude
Exits shadow 03:00:08 27° 14° (NNE) 1,669 9.5 -37.6°
Drops below altitude 10° 03:02:57 10° 28° (NNE) 2,590 10.8 -37.2°
Sets 03:05:31 0° 34° (NE) 3,520 11.7 -36.8°
